This is the latest recevied weather packets stored in our database for station/object KP4FJC. If no packets are shown the sender has not sent any weather packets the latest 10 day(s).
| Time | Temp. | Humidity | Pressure | Rain* | Wind** | Luminosity | Snow |
|---|---|---|---|---|---|---|---|
| 1777848552 | 28.33° C | 66% | 1016.9 hPa | 0 mm | - | 3 W/m² | - |
| 1777848249 | 28.89° C | 65% | 1016.5 hPa | 0 mm | - | 5 W/m² | - |
| 1777847947 | 28.89° C | 64% | 1016.6 hPa | 0 mm | - | 9 W/m² | - |
| 1777847645 | 28.89° C | 64% | 1016.6 hPa | 0 mm | - | 13 W/m² | - |
| 1777847340 | 28.89° C | 64% | 1016.6 hPa | 0 mm | - | 18 W/m² | - |
| 1777847039 | 29.44° C | 63% | 1016.5 hPa | 0 mm | - | 24 W/m² | - |
| 1777846736 | 29.44° C | 63% | 1016.5 hPa | 0 mm | - | 28 W/m² | - |
| 1777846435 | 29.44° C | 62% | 1016.3 hPa | 0 mm | - | 33 W/m² | - |
| 1777846130 | 30° C | 62% | 1016.4 hPa | 0 mm | - | 40 W/m² | - |
| 1777845827 | 30° C | 61% | 1016.2 hPa | 0 mm | - | 50 W/m² | - |
| 1777845524 | 30° C | 61% | 1016.5 hPa | 0 mm | - | 64 W/m² | - |
| 1777845222 | 30° C | 60% | 1016.3 hPa | 0 mm | - | 76 W/m² | - |
| 1777844919 | 30° C | 60% | 1016.3 hPa | 0 mm | - | 86 W/m² | - |
| 1777844616 | 30° C | 59% | 1016.2 hPa | 0 mm | - | 95 W/m² | - |
| 1777844313 | 30.56° C | 59% | 1016.3 hPa | 0 mm | - | 105 W/m² | - |
| 1777844011 | 31.11° C | 57% | 1015.9 hPa | 0 mm | - | 117 W/m² | - |
| 1777843708 | 30.56° C | 57% | 1016.2 hPa | 0 mm | - | 130 W/m² | - |
| 1777843406 | 30.56° C | 58% | 1016.2 hPa | 0 mm | - | 146 W/m² | - |
| 1777843103 | 31.11° C | 57% | 1016.2 hPa | 0 mm | - | 162 W/m² | - |
| 1777842799 | 31.11° C | 56% | 1016.4 hPa | 0 mm | - | 179 W/m² | - |
| 1777842499 | 31.67° C | 56% | 1016.1 hPa | 0 mm | - | 200 W/m² | - |
| 1777842197 | 31.11° C | 56% | 1016 hPa | 0 mm | - | 219 W/m² | - |
| 1777841892 | 31.11° C | 55% | 1016.1 hPa | 0 mm | - | 239 W/m² | - |
| 1777841589 | 31.11° C | 55% | 1016.1 hPa | 0 mm | - | 259 W/m² | - |
| 1777841285 | 31.67° C | 55% | 1016 hPa | 0 mm | - | 283 W/m² | - |
* Rain latest hour (hover to see other rain measurements)
** Current wind speed in m/s (hover to see current wind gust speed)